Regional Weather Roundup
Issued by NWS

Home | Current Version | Previous Version | Graphics & Text | Print | Product List | Glossary On
Versions: 1 2 3 4 5 6 7 8 9 10 11 12 13 14 15 16 17 18 19 20 21 22 23 24 25 26 27 28 29 30 31 32 33 34 35 36 37 38 39 40 41 42 43 44 45 46 47 48 49 50
132
ASUS43 KTOP 292108
RWRKS

WEATHER ROUNDUP FOR KANSAS
NATIONAL WEATHER SERVICE GOODLAND KS
400 PM CDT WED MAR 29 2017

NOTE:  "FAIR" INDICATES FEW OR NO CLOUDS BELOW 12,000 FEET WITH NO
SIGNIFICANT WEATHER AND/OR OBSTRUCTIONS TO VISIBILITY.

KSZ001>006-013>018-027>032-041>047-292200-
NORTHWEST KANSAS

CITY           SKY/WX    TMP DP  RH WIND       PRES   REMARKS
GOODLAND       CLOUDY    42  39  89 N18       29.92S
HAYS             N/A     44  41  89 N32G39    29.75F
HILL CITY      RAIN      43  42  97 N18G30    29.84F FOG
RUSSELL        LGT RAIN  44  42  93 N22G32    29.72F
$$

KSZ061>065-074>080-084>089-292200-
SOUTHWEST KANSAS

CITY           SKY/WX    TMP DP  RH WIND       PRES   REMARKS
DODGE CITY     LGT RAIN  42  39  89 N26G37    29.79R FOG
ELKHART          N/A     42  33  70 N21         N/A
GARDEN CITY    LGT RAIN  41  38  89 N25G33    29.85S
GREAT BEND     LGT RAIN  45  43  93 N30G40    29.69S FOG
LIBERAL        CLOUDY    43  37  81 N21G28    29.88S
PRATT          LGT RAIN  42  42  99 N25G38    29.65R
$$

KSZ066>073-081>083-090>101-292200-
SOUTHEAST KANSAS

CITY           SKY/WX    TMP DP  RH WIND       PRES   REMARKS
CHANUTE        PTSUNNY   69  55  60 SW25      29.63R
COFFEYVILLE    MOSUNNY   69  57  65 SW21      29.64S
HUTCHINSON     LGT RAIN  48  46  93 N22G31    29.60F FOG
MEDICINE LODGE   N/A     48  45  89 N23G32    29.59R
NEWTON         CLOUDY    52  51  97 N10       29.60S
PARSONS        MOSUNNY   68  58  70 SW10G21   29.65R
WICHITA INTL   CLOUDY    59  53  80 S15       29.58S
WICHITA JABRA  CLOUDY    59  51  75 S15G25    29.58F
WICHITA MCCONL CLOUDY    59  50  72 S21       29.58F
WINFIELD       CLOUDY    62  52  69 S20G29    29.61F
$$

KSZ007>012-019>026-033>040-048>060-102>105-292200-
NORTHEAST KANSAS

CITY           SKY/WX    TMP DP  RH WIND       PRES   REMARKS
CONCORDIA      CLOUDY    44  43  96 N24G33    29.72F
EMPORIA        MOSUNNY   67  57  70 S22G28    29.60S
LAWRENCE       CLOUDY    58  55  90 NE15      29.65F
MANHATTAN      CLOUDY    51  51 100 NE22G29   29.64F
MARYSVILLE     TSTM      43  43 100 NE18G24   29.74R
OLATHE IND     PTSUNNY   63  57  81 E16G23    29.63F
OLATHE EXE     PTSUNNY   63  58  83 E10G24    29.64F
SALINA         LGT RAIN  47  45  93 N21       29.66F FOG
TOPEKA BILLARD CLOUDY    57  56  96 NE8       29.66R
TOPEKA FORBES  CLOUDY    59  56  89 N14       29.63F THUNDER
$$




USA.gov is the U.S. government's official web portal to all federal, state and local government web resources and services.